RYR9620 EGPH-EGPK

Flight info

Callsign RYR9620
Flight time 0h 19m
Altitude 8000
Route GOSAM P600 TRN
Aircraft B738/M-SDE2E3FGHIRWXY/LB1

Departure

Time 2026-04-23 22:27
Airport Edinburgh Airport (EGPH)

Arrival

Time 2026-04-23 22:46
Airport Glasgow Prestwick Airport (EGPK)
Time Latitude Longitude Altitude Speed Heading
2026-04-23 22:14 55.94964 -3.36287 144 ft 0 kts 149°
2026-04-23 22:20 55.94966 -3.36290 144 ft 2 kts 149°
2026-04-23 22:20 55.94978 -3.36302 144 ft 2 kts 149°
2026-04-23 22:21 55.94992 -3.36321 144 ft 3 kts 133°
2026-04-23 22:21 55.95003 -3.36351 144 ft 3 kts 109°
2026-04-23 22:21 55.95006 -3.36387 144 ft 3 kts 84°
2026-04-23 22:21 55.95001 -3.36420 144 ft 3 kts 71°
2026-04-23 22:22 55.94994 -3.36452 144 ft 2 kts 59°
2026-04-23 22:22 55.94987 -3.36471 144 ft 0 kts 59°
2026-04-23 22:23 55.94989 -3.36466 144 ft 2 kts 59°
2026-04-23 22:23 55.95003 -3.36424 144 ft 6 kts 59°
2026-04-23 22:24 55.95043 -3.36385 144 ft 8 kts 352°
2026-04-23 22:24 55.95072 -3.36466 144 ft 10 kts 245°
2026-04-23 22:24 55.95031 -3.36590 144 ft 14 kts 239°
2026-04-23 22:24 55.94977 -3.36752 144 ft 17 kts 239°
2026-04-23 22:25 55.94908 -3.36956 144 ft 21 kts 239°
2026-04-23 22:25 55.94827 -3.37198 144 ft 24 kts 239°
2026-04-23 22:25 55.94734 -3.37474 144 ft 22 kts 239°
2026-04-23 22:25 55.94671 -3.37660 144 ft 16 kts 239°
2026-04-23 22:26 55.94614 -3.37830 144 ft 13 kts 239°
2026-04-23 22:26 55.94603 -3.37952 144 ft 9 kts 312°
2026-04-23 22:26 55.94662 -3.38019 144 ft 7 kts 329°
2026-04-23 22:26 55.94717 -3.38062 144 ft 9 kts 12°
2026-04-23 22:27 55.94763 -3.37957 144 ft 25 kts 60°
2026-04-23 22:27 55.94989 -3.37286 144 ft 98 kts 59°
2026-04-23 22:27 55.95448 -3.35927 245 ft 146 kts 59°
2026-04-23 22:27 55.95987 -3.34334 926 ft 154 kts 60°
2026-04-23 22:28 55.96630 -3.32697 1513 ft 172 kts 48°
2026-04-23 22:28 55.97574 -3.31182 2133 ft 191 kts 40°
2026-04-23 22:28 55.98627 -3.29650 2776 ft 201 kts 39°
2026-04-23 22:28 55.99903 -3.28543 3356 ft 208 kts 13°
2026-04-23 22:29 56.01346 -3.28785 3976 ft 211 kts 341°
2026-04-23 22:29 56.02510 -3.30319 4574 ft 215 kts 310°
2026-04-23 22:29 56.03106 -3.32811 5170 ft 223 kts 278°
2026-04-23 22:29 56.03063 -3.35651 5816 ft 234 kts 261°
2026-04-23 22:30 56.02762 -3.38569 6433 ft 247 kts 256°
2026-04-23 22:30 56.02354 -3.41651 6838 ft 257 kts 255°
2026-04-23 22:30 56.01910 -3.44743 7212 ft 260 kts 255°
2026-04-23 22:30 56.01441 -3.47907 7592 ft 263 kts 254°
2026-04-23 22:31 56.00979 -3.51075 7866 ft 269 kts 255°
2026-04-23 22:31 56.00507 -3.54359 7967 ft 273 kts 255°
2026-04-23 22:31 56.00039 -3.57623 7993 ft 273 kts 255°
2026-04-23 22:31 55.99553 -3.60915 7998 ft 272 kts 254°
2026-04-23 22:32 55.99064 -3.64152 7999 ft 272 kts 254°
2026-04-23 22:32 55.98565 -3.67428 8000 ft 271 kts 254°
2026-04-23 22:32 55.98072 -3.70655 8000 ft 271 kts 254°
2026-04-23 22:32 55.97571 -3.73912 8000 ft 271 kts 253°
2026-04-23 22:33 55.96761 -3.76890 7994 ft 270 kts 232°
2026-04-23 22:33 55.95404 -3.79178 8182 ft 267 kts 218°
2026-04-23 22:33 55.93878 -3.81085 8349 ft 270 kts 213°
2026-04-23 22:33 55.92275 -3.82876 8459 ft 272 kts 212°
2026-04-23 22:34 55.90638 -3.84630 8490 ft 274 kts 211°
2026-04-23 22:34 55.89015 -3.86342 8496 ft 274 kts 211°
2026-04-23 22:34 55.87363 -3.88072 8496 ft 273 kts 211°
2026-04-23 22:34 55.85736 -3.89771 8496 ft 273 kts 211°
2026-04-23 22:35 55.84091 -3.91487 8494 ft 273 kts 211°
2026-04-23 22:35 55.82471 -3.93178 8493 ft 273 kts 211°
2026-04-23 22:35 55.80825 -3.94893 8493 ft 273 kts 211°
2026-04-23 22:35 55.79200 -3.96585 8492 ft 273 kts 211°
2026-04-23 22:36 55.77549 -3.98304 8492 ft 273 kts 211°
2026-04-23 22:36 55.75925 -3.99994 8492 ft 273 kts 211°
2026-04-23 22:36 55.74281 -4.01705 8484 ft 273 kts 211°
2026-04-23 22:36 55.72641 -4.03413 8293 ft 277 kts 211°
2026-04-23 22:37 55.70992 -4.05131 8039 ft 267 kts 211°
2026-04-23 22:37 55.69442 -4.06750 7782 ft 254 kts 211°
2026-04-23 22:37 55.67950 -4.08312 7525 ft 243 kts 211°
2026-04-23 22:37 55.66536 -4.09795 7271 ft 234 kts 211°
2026-04-23 22:38 55.65155 -4.11250 7016 ft 228 kts 211°
2026-04-23 22:38 55.63809 -4.12672 6764 ft 223 kts 211°
2026-04-23 22:38 55.62491 -4.14071 6508 ft 218 kts 211°
2026-04-23 22:38 55.61201 -4.15444 6252 ft 214 kts 211°
2026-04-23 22:39 55.59945 -4.16790 6003 ft 211 kts 211°
2026-04-23 22:39 55.58716 -4.18109 5750 ft 206 kts 211°
2026-04-23 22:39 55.57493 -4.19427 5490 ft 202 kts 211°
2026-04-23 22:39 55.56315 -4.20697 5239 ft 198 kts 211°
2026-04-23 22:40 55.55146 -4.21961 4987 ft 195 kts 211°
2026-04-23 22:40 55.53985 -4.23218 4730 ft 193 kts 211°
2026-04-23 22:40 55.51725 -4.25680 4223 ft 189 kts 211°
2026-04-23 22:41 55.50624 -4.26883 4006 ft 184 kts 211°
2026-04-23 22:41 55.49539 -4.28071 3760 ft 181 kts 211°
2026-04-23 22:41 55.48481 -4.29235 3507 ft 179 kts 211°
2026-04-23 22:41 55.47434 -4.30390 3255 ft 178 kts 211°
2026-04-23 22:42 55.46383 -4.31552 3039 ft 175 kts 211°
2026-04-23 22:42 55.45369 -4.32682 2874 ft 173 kts 211°
2026-04-23 22:42 55.44384 -4.33914 2705 ft 175 kts 223°
2026-04-23 22:42 55.43847 -4.35799 2590 ft 176 kts 254°
2026-04-23 22:43 55.43805 -4.37983 2497 ft 181 kts 276°
2026-04-23 22:43 55.44175 -4.40102 2331 ft 183 kts 293°
2026-04-23 22:43 55.44773 -4.41999 2155 ft 167 kts 301°
2026-04-23 22:43 55.45355 -4.43587 1955 ft 143 kts 303°
2026-04-23 22:44 55.45890 -4.45015 1736 ft 139 kts 303°
2026-04-23 22:44 55.46417 -4.46456 1533 ft 139 kts 302°
2026-04-23 22:44 55.46924 -4.47879 1340 ft 138 kts 302°
2026-04-23 22:44 55.47430 -4.49322 1164 ft 137 kts 302°
2026-04-23 22:45 55.47926 -4.50749 990 ft 137 kts 302°
2026-04-23 22:45 55.48422 -4.52178 810 ft 138 kts 301°
2026-04-23 22:45 55.48926 -4.53633 604 ft 138 kts 301°
2026-04-23 22:45 55.49418 -4.55056 414 ft 136 kts 301°
2026-04-23 22:46 55.49912 -4.56484 236 ft 135 kts 301°
2026-04-23 22:46 55.50393 -4.57875 80 ft 127 kts 301°
2026-04-23 22:46 55.50758 -4.58933 74 ft 62 kts 301°
2026-04-23 22:46 55.50888 -4.59314 74 ft 20 kts 297°
2026-04-23 22:47 55.50860 -4.59418 74 ft 9 kts 230°
2026-04-23 22:47 55.50828 -4.59516 74 ft 11 kts 243°
2026-04-23 22:47 55.50795 -4.59575 74 ft 9 kts 175°
2026-04-23 22:47 55.50751 -4.59496 74 ft 11 kts 121°
2026-04-23 22:48 55.50704 -4.59363 74 ft 12 kts 129°
2026-04-23 22:48 55.50652 -4.59392 74 ft 9 kts 245°
2026-04-23 22:48 55.50641 -4.59435 74 ft 5 kts 245°
2026-04-23 22:48 55.50618 -4.59519 74 ft 10 kts 245°
2026-04-23 22:49 55.50597 -4.59599 74 ft 4 kts 244°
2026-04-23 22:49 55.50571 -4.59604 74 ft 2 kts 119°
2026-04-23 22:49 55.50560 -4.59587 74 ft 2 kts 181°
2026-04-23 22:49 55.50532 -4.59614 74 ft 5 kts 207°
2026-04-23 22:50 55.50528 -4.59618 74 ft 0 kts 207°